Regional Weather Roundup
Issued by NWS

Home | Current Version | Previous Version | Text Only | Print | Product List | Glossary Off
Versions: 1 2 3 4 5 6 7 8 9 10 11 12 13 14 15 16 17 18 19 20 21 22 23 24 25 26 27 28 29 30 31 32 33 34 35 36 37 38 39 40 41 42 43 44 45 46 47 48 49 50

000
ASUS43 KOAX 310002
RWRNE

WEATHER ROUNDUP FOR NEBRASKA
NATIONAL WEATHER SERVICE OMAHA NE
700 PM CDT SAT JUL 30 2016

NOTES: SATELLITE DATA IS BEING USED TO AUGMENT CLOUD COVER ABOVE
       12000 FEET.
       "FAIR" INDICATES FEW OR NO CLOUDS BELOW 12,000 FEET WITH NO
       SIGNIFICANT WEATHER AND/OR OBSTRUCTIONS TO VISIBILITY.

  * THESE STATIONS DO NOT REPORT WEATHER SUCH AS RAIN...SNOW OR FOG.

NEZ001>004-019>022-054>056-310100-
NEBRASKA PANHANDLE

CITY           SKY/WX    TMP DP  RH WIND       PRES   REMARKS
SCOTTSBLUFF    SUNNY     88  61  40 E15G23    29.88F
6HR MIN TEMP:  80; 6HR MAX TEMP:  91;

ALLIANCE       SUNNY     85  59  41 SE17      29.90F
6HR MIN TEMP:  80; 6HR MAX TEMP:  86;

CHADRON        SUNNY     90  58  33 S22       29.81F
6HR MIN TEMP:  87; 6HR MAX TEMP:  93;

SIDNEY         SUNNY     86  58  38 SE16      29.96F
6HR MIN TEMP:  82; 6HR MAX TEMP:  89;

$$

NEZ057>060-069>072-079>082-310100-
SOUTHWEST NEBRASKA

CITY           SKY/WX    TMP DP  RH WIND       PRES   REMARKS
NORTH PLATTE   SUNNY     84  67  56 SE8       29.90F
6HR MIN TEMP:  75; 6HR MAX TEMP:  86;

IMPERIAL       SUNNY     88  60  38 SE15      29.90F
6HR MIN TEMP:  82; 6HR MAX TEMP:  90;

LEXINGTON      SUNNY     83  67  58 SE12      29.92S
MCCOOK         SUNNY     89  61  38 SE13      29.89F
6HR MIN TEMP:  87; 6HR MAX TEMP:  92;

OGALLALA       SUNNY     89  58  34 SE9       29.91F
$$

NEZ005>010-023>029-035>040-094-310100-
NORTH CENTRAL NEBRASKA

CITY           SKY/WX    TMP DP  RH WIND       PRES   REMARKS
VALENTINE      SUNNY     84  61  45 S13       29.87F
6HR MIN TEMP:  81; 6HR MAX TEMP:  88;

AINSWORTH      SUNNY     82  66  58 S13       29.90F
BROKEN BOW     MOSUNNY   81  68  64 S10       29.92F
6HR MIN TEMP:  76; 6HR MAX TEMP:  82;

O`NEILL        MOSUNNY   80  65  61 SE13G18   29.92F
ORD            MOSUNNY   82  68  62 SE9       29.91F
6HR MIN TEMP:  77; 6HR MAX TEMP:  83;

THEDFORD       SUNNY     85  67  54 S13G18    29.91F
$$

NEZ041-046>049-061>064-073>077-083>087-310100-
SOUTH CENTRAL NEBRASKA

CITY           SKY/WX    TMP DP  RH WIND       PRES   REMARKS
GRAND ISLAND   SUNNY     80  69  69 SE13      29.94S
6HR MIN TEMP:  74; 6HR MAX TEMP:  83;

AURORA         SUNNY     80  70  71 SE12      29.94F
HASTINGS       MOSUNNY   80  68  66 SE15      29.93F
6HR MIN TEMP:  76; 6HR MAX TEMP:  86;

HEBRON         SUNNY     82  64  55 SE8       29.93F
HOLDREGE       SUNNY     84  65  52 S12       29.92F
KEARNEY *      SUNNY     82  70  65 SE13      29.94S
YORK           SUNNY     77  70  78 SE12      29.94F
$$

NEZ011>018-030>034-042>045-310100-
NORTHEAST NEBRASKA

CITY           SKY/WX    TMP DP  RH WIND       PRES   REMARKS
NORFOLK        MOSUNNY   78  63  59 SE12      29.94F
6HR MIN TEMP:  74; 6HR MAX TEMP:  81;

ALBION         MOSUNNY   77  66  69 SE9G17    29.94F
BLAIR          PTSUNNY   79  67  66 SE6       29.95F
FREMONT        MOSUNNY   79  64  60 SE9       29.96S
TEKAMAH        SUNNY     81  63  54 SE9       29.94F
6HR MIN TEMP:  77; 6HR MAX TEMP:  83;

WAYNE          SUNNY     77  65  65 SE9       29.95F
$$

NEZ050>053-065>068-078-088>093-310100-
SOUTHEAST NEBRASKA

CITY           SKY/WX    TMP DP  RH WIND       PRES   REMARKS
LINCOLN        SUNNY     80  67  64 SE8       29.95F
6HR MIN TEMP:  72; 6HR MAX TEMP:  81;

OMAHA EPPLEY   MOSUNNY   81  64  56 SE13      29.95S
6HR MIN TEMP:  75; 6HR MAX TEMP:  82;

BEATRICE       SUNNY     80  68  65 E10       29.94F
FALLS CITY     SUNNY     80  68  66 SE7       29.94F
6HR MIN TEMP:  73; 6HR MAX TEMP:  80; 6HR PCP:  0.08;

NEBRASKA CITY  SUNNY     78  67  69 SE6       29.96F
PLATTSMOUTH    CLOUDY    76  67  71 SE6       29.96F
$$

NEZ044-045-051>053-067-310100-
OMAHA AREA

CITY           SKY/WX    TMP DP  RH WIND       PRES   REMARKS
OMAHA EPPLEY   MOSUNNY   81  64  56 SE13      29.95S
6HR MIN TEMP:  75; 6HR MAX TEMP:  82;

BLAIR          PTSUNNY   79  67  66 SE6       29.95F
FREMONT        MOSUNNY   79  64  60 SE9       29.96S
MILLARD        CLOUDY    78  66  66 SE8       29.95S
OFFUTT AFB     MOSUNNY   78  65  64 SE7       29.95F
PLATTSMOUTH    CLOUDY    76  67  71 SE6       29.96F
WAHOO          FAIR      78  65  64 SE9       29.95F
$$




USA.gov is the U.S. government's official web portal to all federal, state and local government web resources and services.